NOZ1257 EHAM-ENGM

Flight info

Callsign NOZ1257
Flight time 1h 26m
Altitude 37000
Route ANDIK N873 BAVTA P601 NIROD DCT RIPAM
Aircraft B738/M-SDE2E3GHIJ1LRWXY/LB1

Departure

Time 2026-05-04 17:04
Airport Amsterdam Airport Schiphol (EHAM)

Arrival

Time 2026-05-04 18:31
Airport Oslo-Gardermoen International Airport (ENGM)
Time Latitude Longitude Altitude Speed Heading
2026-05-04 16:19 52.30444 4.76326 -1 ft 0 kts 238°
2026-05-04 16:52 52.30456 4.76359 -1 ft 2 kts 238°
2026-05-04 16:52 52.30461 4.76372 -1 ft 2 kts 237°
2026-05-04 16:53 52.30483 4.76384 -1 ft 1 kts 159°
2026-05-04 16:53 52.30489 4.76379 -1 ft 0 kts 158°
2026-05-04 16:57 52.30470 4.76398 -1 ft 5 kts 148°
2026-05-04 16:58 52.30327 4.76539 -1 ft 9 kts 178°
2026-05-04 16:58 52.30277 4.76476 -1 ft 10 kts 238°
2026-05-04 16:59 52.30169 4.76191 -1 ft 17 kts 238°
2026-05-04 17:00 52.29883 4.75445 -1 ft 20 kts 238°
2026-05-04 17:00 52.29951 4.74991 -1 ft 18 kts 311°
2026-05-04 17:01 52.30125 4.74668 -1 ft 18 kts 311°
2026-05-04 17:01 52.30295 4.74352 -1 ft 16 kts 312°
2026-05-04 17:02 52.30310 4.74029 -1 ft 14 kts 225°
2026-05-04 17:02 52.30187 4.73811 -1 ft 12 kts 273°
2026-05-04 17:03 52.30222 4.73735 -1 ft 8 kts 359°
2026-05-04 17:03 52.30286 4.73739 -1 ft 15 kts
2026-05-04 17:03 52.31374 4.73842 -1 ft 134 kts
2026-05-04 17:04 52.33559 4.74061 760 ft 164 kts
2026-05-04 17:04 52.35805 4.75177 1830 ft 177 kts 25°
2026-05-04 17:05 52.38063 4.77210 2761 ft 199 kts 38°
2026-05-04 17:05 52.40181 4.80718 3545 ft 236 kts 45°
2026-05-04 17:06 52.42621 4.84692 4646 ft 260 kts 37°
2026-05-04 17:06 52.44233 4.86099 5322 ft 265 kts 13°
2026-05-04 17:07 52.47946 4.86020 6826 ft 271 kts 354°
2026-05-04 17:07 52.49224 4.85848 7278 ft 275 kts 354°
2026-05-04 17:07 52.51766 4.85644 8230 ft 280 kts
2026-05-04 17:07 52.53699 4.86260 8900 ft 288 kts 22°
2026-05-04 17:08 52.55356 4.88099 9571 ft 294 kts 45°
2026-05-04 17:08 52.57945 4.93456 10629 ft 313 kts 52°
2026-05-04 17:08 52.59331 4.96362 11030 ft 328 kts 51°
2026-05-04 17:09 52.60790 4.99396 11405 ft 343 kts 51°
2026-05-04 17:09 52.62326 5.02594 11828 ft 357 kts 51°
2026-05-04 17:09 52.63872 5.05821 12445 ft 363 kts 51°
2026-05-04 17:10 52.67039 5.12462 13841 ft 372 kts 51°
2026-05-04 17:10 52.71955 5.22798 15938 ft 386 kts 51°
2026-05-04 17:11 52.73619 5.26307 16649 ft 389 kts 51°
2026-05-04 17:11 52.75290 5.29834 17291 ft 394 kts 51°
2026-05-04 17:11 52.78686 5.37005 18584 ft 402 kts 51°
2026-05-04 17:12 52.80404 5.40641 19180 ft 407 kts 51°
2026-05-04 17:12 52.83939 5.48147 20278 ft 418 kts 51°
2026-05-04 17:13 52.89391 5.59771 21973 ft 430 kts 51°
2026-05-04 17:14 52.94970 5.71727 23462 ft 444 kts 51°
2026-05-04 17:14 52.96847 5.75761 23894 ft 450 kts 51°
2026-05-04 17:14 53.00685 5.84025 24920 ft 456 kts 52°
2026-05-04 17:15 53.02606 5.88171 25428 ft 459 kts 52°
2026-05-04 17:15 53.06539 5.96689 26329 ft 468 kts 52°
2026-05-04 17:16 53.10543 6.05386 27175 ft 476 kts 52°
2026-05-04 17:16 53.16644 6.18721 28383 ft 487 kts 53°
2026-05-04 17:17 53.18820 6.23080 28737 ft 491 kts 46°
2026-05-04 17:17 53.27125 6.32748 30185 ft 489 kts 24°
2026-05-04 17:18 53.30193 6.35234 30646 ft 489 kts 23°
2026-05-04 17:18 53.36302 6.40090 31675 ft 485 kts 22°
2026-05-04 17:19 53.42365 6.44918 32763 ft 479 kts 22°
2026-05-04 17:19 53.48317 6.49678 33725 ft 473 kts 22°
2026-05-04 17:20 53.54229 6.54425 34525 ft 471 kts 22°
2026-05-04 17:20 53.60067 6.59129 35251 ft 466 kts 22°
2026-05-04 17:20 53.62997 6.61497 35558 ft 464 kts 22°
2026-05-04 17:21 53.68798 6.66197 35990 ft 463 kts 23°
2026-05-04 17:21 53.74553 6.70877 36459 ft 459 kts 23°
2026-05-04 17:22 53.77432 6.73223 36690 ft 459 kts 23°
2026-05-04 17:22 53.80279 6.75544 36926 ft 459 kts 23°
2026-05-04 17:23 53.91724 6.84916 37006 ft 455 kts 23°
2026-05-04 17:24 54.00280 6.91960 37009 ft 457 kts 23°
2026-05-04 17:25 54.11686 7.01398 37008 ft 457 kts 23°
2026-05-04 17:26 54.23036 7.10853 37006 ft 453 kts 23°
2026-05-04 17:27 54.37135 7.22678 37007 ft 451 kts 23°
2026-05-04 17:28 54.48340 7.32138 36996 ft 450 kts 23°
2026-05-04 17:29 54.65104 7.46403 36987 ft 448 kts 23°
2026-05-04 17:31 54.78982 7.58312 36987 ft 447 kts 23°
2026-05-04 17:32 54.93446 7.67476 36987 ft 442 kts 14°
2026-05-04 17:33 55.05152 7.73724 36985 ft 443 kts 15°
2026-05-04 17:34 55.16840 7.80350 36984 ft 442 kts 15°
2026-05-04 17:35 55.31453 7.88777 36982 ft 441 kts 15°
2026-05-04 17:36 55.37275 7.92155 36983 ft 443 kts 15°
2026-05-04 17:36 55.43129 7.95561 36979 ft 442 kts 15°
2026-05-04 17:37 55.48950 7.98958 36978 ft 442 kts 15°
2026-05-04 17:37 55.54778 8.02369 36975 ft 442 kts 15°
2026-05-04 17:38 55.60575 8.05774 36979 ft 442 kts 15°
2026-05-04 17:38 55.66407 8.09209 36976 ft 442 kts 15°
2026-05-04 17:39 55.75135 8.14371 36974 ft 442 kts 15°
2026-05-04 17:39 55.80969 8.17836 36978 ft 442 kts 15°
2026-05-04 17:40 55.86751 8.21279 36982 ft 442 kts 15°
2026-05-04 17:40 55.92602 8.24776 36983 ft 442 kts 14°
2026-05-04 17:41 55.98383 8.28239 36985 ft 442 kts 14°
2026-05-04 17:41 56.04224 8.31752 36978 ft 441 kts 14°
2026-05-04 17:42 56.10002 8.35237 36977 ft 441 kts 14°
2026-05-04 17:42 56.15802 8.38745 36971 ft 442 kts 14°
2026-05-04 17:43 56.21607 8.42268 36965 ft 443 kts 14°
2026-05-04 17:43 56.27430 8.45816 36960 ft 442 kts 14°
2026-05-04 17:44 56.33260 8.49379 36955 ft 442 kts 14°
2026-05-04 17:44 56.39056 8.52933 36952 ft 443 kts 14°
2026-05-04 17:45 56.44846 8.56492 36962 ft 443 kts 14°
2026-05-04 17:45 56.50663 8.60080 36956 ft 442 kts 14°
2026-05-04 17:46 56.56501 8.63692 36956 ft 443 kts 14°
2026-05-04 17:46 56.62318 8.67303 36954 ft 443 kts 14°
2026-05-04 17:47 56.68127 8.70921 36955 ft 443 kts 14°
2026-05-04 17:47 56.73935 8.74550 36960 ft 444 kts 14°
2026-05-04 17:48 56.79754 8.78200 36951 ft 443 kts 14°
2026-05-04 17:48 56.85597 8.81878 36953 ft 444 kts 14°
2026-05-04 17:49 56.91419 8.85553 36941 ft 443 kts 14°
2026-05-04 17:49 56.97203 8.89215 36946 ft 443 kts 14°
2026-05-04 17:50 57.03034 8.92917 36934 ft 444 kts 14°
2026-05-04 17:50 57.08856 8.96628 36940 ft 444 kts 14°
2026-05-04 17:51 57.14704 9.00367 36929 ft 445 kts 14°
2026-05-04 17:51 57.20537 9.04108 36920 ft 445 kts 14°
2026-05-04 17:52 57.26360 9.07857 36913 ft 445 kts 14°
2026-05-04 17:52 57.32167 9.11608 36907 ft 445 kts 14°
2026-05-04 17:53 57.37999 9.15389 36920 ft 444 kts 13°
2026-05-04 17:53 57.43787 9.19152 36907 ft 446 kts 13°
2026-05-04 17:54 57.49637 9.22968 36900 ft 447 kts 13°
2026-05-04 17:54 57.55526 9.26824 36886 ft 447 kts 13°
2026-05-04 17:55 57.61363 9.30659 36882 ft 447 kts 13°
2026-05-04 17:55 57.67206 9.34509 36880 ft 447 kts 13°
2026-05-04 17:56 57.73047 9.38371 36869 ft 447 kts 13°
2026-05-04 17:56 57.78905 9.42258 36858 ft 448 kts 13°
2026-05-04 17:57 57.84739 9.46144 36868 ft 448 kts 13°
2026-05-04 17:57 57.90611 9.50068 36857 ft 449 kts 13°
2026-05-04 17:58 57.96461 9.53993 36853 ft 447 kts 13°
2026-05-04 17:58 58.02296 9.57917 36851 ft 448 kts 12°
2026-05-04 17:59 58.08222 9.61233 36841 ft 440 kts
2026-05-04 18:00 58.17250 9.63006 36842 ft 432 kts 355°
2026-05-04 18:00 58.23203 9.63493 36829 ft 432 kts 355°
2026-05-04 18:01 58.29196 9.63988 36817 ft 433 kts 355°
2026-05-04 18:01 58.35233 9.64552 36827 ft 433 kts 355°
2026-05-04 18:02 58.44208 9.65463 36808 ft 434 kts 356°
2026-05-04 18:02 58.50238 9.66094 36795 ft 434 kts 356°
2026-05-04 18:03 58.56266 9.66729 36806 ft 435 kts 356°
2026-05-04 18:03 58.62289 9.67368 36806 ft 434 kts 356°
2026-05-04 18:04 58.68299 9.68005 36787 ft 436 kts 355°
2026-05-04 18:04 58.74355 9.68647 36298 ft 436 kts 355°
2026-05-04 18:05 58.77352 9.68973 36066 ft 432 kts 355°
2026-05-04 18:05 58.80378 9.69301 35896 ft 432 kts 355°
2026-05-04 18:05 58.83346 9.69621 35739 ft 433 kts 355°
2026-05-04 18:05 58.86373 9.69947 35507 ft 432 kts 355°
2026-05-04 18:06 58.92333 9.70587 34408 ft 436 kts 354°
2026-05-04 18:06 58.95359 9.70905 33622 ft 439 kts 354°
2026-05-04 18:06 58.98415 9.71229 32861 ft 441 kts 354°
2026-05-04 18:07 59.01481 9.71557 32108 ft 443 kts 354°
2026-05-04 18:07 59.04538 9.71887 31346 ft 445 kts 354°
2026-05-04 18:07 59.07616 9.72221 30567 ft 446 kts 354°
2026-05-04 18:07 59.10706 9.72559 29892 ft 443 kts 354°
2026-05-04 18:08 59.13719 9.72901 29420 ft 437 kts 354°
2026-05-04 18:08 59.16591 9.73231 28926 ft 432 kts 354°
2026-05-04 18:08 59.19568 9.73570 28405 ft 427 kts 354°
2026-05-04 18:08 59.22509 9.73902 27882 ft 422 kts 354°
2026-05-04 18:09 59.28251 9.74545 26953 ft 409 kts 353°
2026-05-04 18:09 59.33778 9.75649 26398 ft 394 kts
2026-05-04 18:10 59.36468 9.76806 25910 ft 394 kts
2026-05-04 18:10 59.39116 9.78204 25419 ft 394 kts
2026-05-04 18:10 59.41700 9.79682 24955 ft 391 kts
2026-05-04 18:10 59.44297 9.81202 24497 ft 388 kts
2026-05-04 18:11 59.46860 9.82699 24038 ft 385 kts
2026-05-04 18:11 59.49415 9.84176 23588 ft 381 kts
2026-05-04 18:11 59.51934 9.85618 23140 ft 378 kts
2026-05-04 18:11 59.54467 9.87056 22693 ft 374 kts
2026-05-04 18:12 59.56923 9.88444 22251 ft 371 kts
2026-05-04 18:12 59.59386 9.89835 21809 ft 368 kts
2026-05-04 18:12 59.61814 9.91204 21386 ft 364 kts
2026-05-04 18:12 59.64263 9.92585 20942 ft 361 kts
2026-05-04 18:13 59.66657 9.93936 20510 ft 359 kts
2026-05-04 18:13 59.69030 9.95270 20090 ft 356 kts
2026-05-04 18:13 59.73924 9.97946 19211 ft 387 kts
2026-05-04 18:14 59.76465 9.99337 18738 ft 385 kts
2026-05-04 18:14 59.78991 10.00765 18289 ft 381 kts
2026-05-04 18:14 59.81419 10.02155 17851 ft 377 kts
2026-05-04 18:15 59.86396 10.05003 16923 ft 371 kts
2026-05-04 18:15 59.91257 10.07768 16014 ft 363 kts
2026-05-04 18:15 59.93673 10.09139 15565 ft 359 kts
2026-05-04 18:16 59.96078 10.10502 15123 ft 358 kts
2026-05-04 18:16 59.98435 10.11844 14683 ft 355 kts
2026-05-04 18:16 60.00782 10.13190 14251 ft 351 kts
2026-05-04 18:17 60.05436 10.15866 13373 ft 345 kts
2026-05-04 18:17 60.07701 10.17178 12970 ft 341 kts
2026-05-04 18:17 60.11801 10.20203 12483 ft 338 kts 18°
2026-05-04 18:18 60.13751 10.23129 12223 ft 344 kts 39°
2026-05-04 18:18 60.15324 10.26695 11981 ft 339 kts 43°
2026-05-04 18:18 60.16772 10.30243 11738 ft 332 kts 45°
2026-05-04 18:18 60.18190 10.33839 11487 ft 326 kts 45°
2026-05-04 18:19 60.20918 10.40885 10978 ft 318 kts 45°
2026-05-04 18:19 60.22242 10.44322 10729 ft 315 kts 46°
2026-05-04 18:19 60.23569 10.47757 10459 ft 313 kts 46°
2026-05-04 18:20 60.24896 10.51199 10200 ft 312 kts 46°
2026-05-04 18:20 60.26224 10.54650 9938 ft 308 kts 46°
2026-05-04 18:20 60.27498 10.57971 9699 ft 306 kts 46°
2026-05-04 18:20 60.28784 10.61328 9436 ft 305 kts 47°
2026-05-04 18:21 60.30088 10.64736 9182 ft 305 kts 47°
2026-05-04 18:21 60.31255 10.67790 8943 ft 302 kts 48°
2026-05-04 18:21 60.32529 10.71133 8685 ft 301 kts 48°
2026-05-04 18:21 60.33795 10.74457 8429 ft 299 kts 49°
2026-05-04 18:22 60.35068 10.77803 8169 ft 300 kts 49°
2026-05-04 18:22 60.36335 10.81145 7893 ft 296 kts 49°
2026-05-04 18:22 60.37561 10.84396 7628 ft 290 kts 49°
2026-05-04 18:22 60.38773 10.87613 7375 ft 286 kts 49°
2026-05-04 18:23 60.39973 10.90799 7129 ft 281 kts 49°
2026-05-04 18:23 60.41135 10.93879 6858 ft 277 kts 49°
2026-05-04 18:23 60.42305 10.96972 6601 ft 272 kts 49°
2026-05-04 18:23 60.43443 10.99987 6350 ft 268 kts 49°
2026-05-04 18:24 60.44552 11.02959 6096 ft 266 kts 52°
2026-05-04 18:24 60.45467 11.06240 5782 ft 268 kts 69°
2026-05-04 18:24 60.45635 11.09933 5477 ft 266 kts 104°
2026-05-04 18:24 60.44857 11.13213 5245 ft 257 kts 130°
2026-05-04 18:25 60.43702 11.15947 4990 ft 253 kts 136°
2026-05-04 18:25 60.42519 11.18503 4735 ft 250 kts 137°
2026-05-04 18:25 60.41313 11.21011 4539 ft 243 kts 142°
2026-05-04 18:25 60.39964 11.22842 4338 ft 229 kts 164°
2026-05-04 18:26 60.38462 11.23374 4148 ft 211 kts 191°
2026-05-04 18:26 60.37121 11.22604 3978 ft 194 kts 213°
2026-05-04 18:26 60.35926 11.21465 3783 ft 189 kts 207°
2026-05-04 18:26 60.34691 11.20670 3591 ft 184 kts 202°
2026-05-04 18:27 60.33481 11.20013 3471 ft 174 kts 202°
2026-05-04 18:27 60.32338 11.19344 3238 ft 173 kts 204°
2026-05-04 18:27 60.31183 11.18651 2994 ft 171 kts 203°
2026-05-04 18:27 60.30053 11.18005 2761 ft 168 kts 202°
2026-05-04 18:28 60.28942 11.17363 2528 ft 166 kts 204°
2026-05-04 18:28 60.27814 11.16698 2313 ft 167 kts 203°
2026-05-04 18:28 60.26731 11.16085 2118 ft 151 kts 203°
2026-05-04 18:28 60.25745 11.15508 1849 ft 150 kts 205°
2026-05-04 18:29 60.24809 11.14946 1645 ft 139 kts 203°
2026-05-04 18:29 60.23865 11.14390 1492 ft 139 kts 200°
2026-05-04 18:29 60.22943 11.13862 1278 ft 142 kts 201°
2026-05-04 18:29 60.21965 11.13310 1138 ft 141 kts 200°
2026-05-04 18:30 60.20089 11.12243 711 ft 138 kts 200°
2026-05-04 18:30 60.19283 11.11769 680 ft 91 kts 197°
2026-05-04 18:30 60.18871 11.11530 680 ft 51 kts 196°
2026-05-04 18:31 60.18559 11.11331 680 ft 37 kts 205°
2026-05-04 18:31 60.18440 11.11137 679 ft 17 kts 250°
2026-05-04 18:31 60.18448 11.10972 679 ft 0 kts 291°
2026-05-04 18:32 60.18448 11.10971 679 ft 0 kts 291°
2026-05-04 18:32 60.18456 11.10936 678 ft 5 kts 303°
2026-05-04 18:32 60.18498 11.10916 678 ft 9 kts 14°
2026-05-04 18:33 60.18575 11.10960 679 ft 13 kts 16°
2026-05-04 18:33 60.18670 11.11016 679 ft 14 kts 15°
2026-05-04 18:33 60.18767 11.11071 680 ft 14 kts 16°
2026-05-04 18:33 60.18868 11.11131 680 ft 15 kts 16°
2026-05-04 18:34 60.18971 11.11191 680 ft 16 kts 16°
2026-05-04 18:34 60.19081 11.11254 680 ft 16 kts 16°
2026-05-04 18:34 60.19198 11.11322 680 ft 17 kts 15°
2026-05-04 18:34 60.19318 11.11391 680 ft 18 kts 16°
2026-05-04 18:35 60.19397 11.11383 680 ft 9 kts 299°
2026-05-04 18:35 60.19421 11.11218 681 ft 16 kts 285°
2026-05-04 18:35 60.19455 11.10980 681 ft 17 kts 285°
2026-05-04 18:35 60.19488 11.10741 680 ft 17 kts 286°
2026-05-04 18:36 60.19522 11.10504 680 ft 15 kts 285°
2026-05-04 18:36 60.19557 11.10402 680 ft 8 kts 329°
2026-05-04 18:36 60.19582 11.10325 679 ft 6 kts 284°
2026-05-04 18:36 60.19593 11.10241 679 ft 6 kts 285°
2026-05-04 18:37 60.19601 11.10187 679 ft 0 kts 286°